Zurück zum Katalog

STARLINK-36454

AktivKommunikationVLEO
NORAD 67470·PAYLOAD·🇺🇸 United States

Gestartet Jan 14, 2026 von Cape Canaveral Space Force Station

Loading…

Nächste Überflüge (nächste 24 Stunden)

TLE

AktuellSource: CelesTrak SupGP

Epoche: Sep 15, 2026, 03:53 UTC

1 67470C 26008AB  26258.16229167 -.00040707  00000+0 -14747-2 0  2589
2 67470  42.9995 214.9881 0001136 274.1777  15.0409 15.27593378    13

Verfolge STARLINK-36454 in Echtzeit mit AllMySat

Download on the App Store